Location: Moscow Pond
(43.6842°N, 73.2366°W)
Time: 00:44:41
(UTC+00:00)

Daily predictions for brighter satellites

Satellite Brightness Start Highest point End
(mag) Time Altitude Azimuth Time Altitude Azimuth Time Altitude Azimuth
Cosmos 1943 Rocket 4.1 00:19:10 10° SSW 00:20:25 17° S 00:20:25 17° S
Timation 2 Rocket 4.4 00:19:34 10° SSW 00:24:54 57° S 00:24:54 57° S
Tiangong 1.5 00:24:25 10° W 00:24:28 10° W 00:24:28 10° W
Cosmos 1833 Rocket 3.8 00:38:49 10° NW 00:44:02 39° WSW 00:44:22 39° WSW
Cosmos 2344 4.5 00:38:03 10° NNW 00:44:03 39° NNE 00:44:03 39° NNE
ATLAS 5 CENTAUR R/B 4.2 00:48:35 10° NW 00:49:26 16° NW 00:49:26 16° NW
Resurs 01 Rocket 4.4 00:58:12 13° NW 00:58:12 13° NW 00:58:54 10° NW
ACS3 Solar Sail 4.2 07:14:59 10° NE 07:16:10 15° NE 07:16:10 15° NE
Cosmos 2219 Rocket 4.2 08:00:18 23° NE 08:00:18 23° NE 08:02:27 10° NE
ADEOS Rocket 4.3 07:55:35 10° NNE 07:59:30 38° NE 07:59:30 38° NE
Cosmos 2278 Rocket 4.3 08:35:25 12° N 08:39:14 22° NE 08:43:31 10° E
Cosmos 2333 Rocket 4.2 08:45:36 18° N 08:45:36 18° N 08:47:15 10° NNE
USA 267 3.3 08:36:27 10° NE 08:42:21 67° N 08:42:21 67° N
CZ-3 R/B 4.4 08:32:32 14° SSW 08:43:24 23° S 08:50:05 10° SE
COSMOS 2455 4.1 08:54:32 28° N 08:54:32 28° N 08:57:46 10° NNE
Cosmos 2360 Rocket 3.8 09:04:26 22° N 09:04:26 22° N 09:06:45 10° N
Cosmos 1153 Rocket 4.4 08:55:26 10° N 09:01:38 86° E 09:07:53 10° S
Cosmos 2322 Rocket 3.9 09:04:58 20° N 09:04:58 20° N 09:07:01 10° N
Cosmos 44 Rocket 4.4 09:00:58 38° NNE 09:02:06 44° NE 09:07:01 10° ESE
ACS3 Solar Sail 2.9 08:57:17 10° N 09:00:19 30° N 09:00:19 30° N
Gbstr 26 Del rocket 3.5 09:05:27 71° E 09:05:27 71° E 09:10:38 10° ENE
SL-16 R/B 4.3 09:11:35 13° N 09:11:35 13° N 09:12:27 10° N
Cosmos 1943 Rocket 3.4 09:10:55 13° N 09:15:31 38° ENE 09:20:37 10° SE
PAYLOAD A 4.0 09:12:16 10° NNE 09:17:42 89° ESE 09:20:39 28° SSW
USA 234 3.1 09:12:06 10° SE 09:18:39 85° SW 09:20:57 45° NW
Cosmos 1140 Rocket 3.9 09:15:53 23° N 09:18:58 58° ENE 09:24:00 10° SE
CZ-2C R/B 2.4 09:14:38 10° N 09:19:10 68° NNW 09:19:10 68° NNW
ARGOS 3.1 09:15:36 10° N 09:20:40 63° NW 09:20:40 63° NW
Meteor 2-14 Rocket 4.3 09:16:19 10° S 09:22:27 81° W 09:28:34 10° N
Intercosmos 25 Rocket 4.3 09:22:15 21° SSW 09:25:47 82° W 09:34:05 10° N
NOSS 2-1 (C) 4.4 09:32:39 27° NNE 09:32:39 27° NNE 09:34:11 10° NNE
Iridium 4 Rocket 4.5 09:27:32 10° NNE 09:31:34 37° E 09:35:25 10° SSE
Cosmos 1809 Rocket 4.3 09:28:42 10° SSW 09:34:45 63° WNW 09:40:48 10° N
NOSS 2-1 (D) 4.5 09:36:33 25° NNE 09:36:33 25° NNE 09:37:58 10° NNE
Timation 2 Rocket 4.2 09:29:49 11° NNW 09:36:15 73° ENE 09:42:36 10° SSE
Cosmos 374 Rocket 4.3 09:39:40 54° SSW 09:40:27 78° SE 09:44:31 10° NE
Cosmos 2219 Rocket 3.2 09:42:02 28° NW 09:42:02 28° NW 09:46:07 10° N
IRS-1D 3.9 09:38:12 10° NNE 09:43:08 61° ESE 09:47:59 10° S
COSMO-SKYMED 1 4.0 09:43:02 10° SE 09:46:48 36° ENE 09:50:37 10° N
SL-08 RB Rocket 3.9 09:42:34 10° N 09:46:48 47° WNW 09:46:48 47° WNW
ADEOS Rocket 4.2 09:41:55 10° N 09:46:25 26° NW 09:46:25 26° NW
Cosmos 2100 Rocket 3.8 09:41:33 10° NNW 09:47:38 67° W 09:53:44 10° S
Orbus 7S? 4.3 09:40:23 10° SW 09:47:54 61° SE 09:51:26 10° NE
NOSS 3-1 (C) 3.1 09:49:30 42° W 09:50:34 50° NW 09:56:02 10° NNE
SKYMED 2 4.1 09:46:20 10° SSE 09:50:35 58° ENE 09:54:52 10° N
COSMOS 2428 2.6 09:47:51 21° SW 09:51:40 63° WNW 09:57:20 10° NNE
NOSS 0 Rocket 3.9 09:48:10 10° SSW 09:54:18 88° ESE 10:00:30 10° NNE
Cosmos 1328 3.5 09:55:02 23° SSW 09:57:06 60° W 10:00:44 10° N
USA 276 2.2 09:57:54 52° SSE 09:57:54 52° SSE 10:00:10 10° SE
Cosmos 2322 3.9 09:56:05 26° WSW 09:59:00 48° WNW 10:04:30 10° NNE
Lacrosse 5 rocket 3.5 10:01:43 10° N 10:01:43 10° N 10:01:46 10° N
Cosmos 407 Rocket 3.7 09:56:26 10° NNW 10:01:33 71° ENE 10:06:38 10° SSE
Cosmos 1023 Rocket 4.5 09:58:38 21° NW 10:01:55 54° WSW 10:06:49 10° S
FengYun 1-2 T 4.2 09:59:42 10° N 10:05:14 68° WNW 10:10:46 10° SSW
Cosmos 921 Rocket 4.3 10:07:01 23° WSW 10:07:01 23° WSW 10:09:34 10° SSW
USA 59 Rocket 0.9 10:08:03 20° NNW 10:08:03 20° NNW 10:09:35 10° N
Cosmos 1703 Rocket 3.5 10:02:50 10° SSW 10:07:07 61° W 10:11:28 10° N
Cosmos 1939 Rocket 3.2 10:04:06 10° N 10:07:40 37° WNW 10:08:21 34° W
Cosmos 1459 Rocket 4.1 10:02:01 10° NNW 10:08:10 52° W 10:14:15 10° SSW
Cosmos 1864 Rocket 4.4 10:03:16 10° NNW 10:09:30 68° W 10:15:46 10° S
BlueWalker 3 1.7 10:09:09 38° WNW 10:10:20 65° SW 10:13:53 10° SE
Cosmos 1980 3.7 10:05:16 10° SSW 10:10:54 87° ESE 10:16:36 10° NNE
Helios 1A Rocket 2.3 10:09:55 10° SSE 10:13:18 82° WSW 10:16:43 10° NNW
Cosmos 1269 Rocket 4.4 10:10:45 17° NW 10:14:22 40° WSW 10:19:15 10° S
Cosmos 1725 Rocket 4.0 10:12:57 10° NNW 10:19:12 63° W 10:25:23 10° S
Cosmos 2251 Rocket 4.1 10:15:59 10° NNW 10:21:18 60° ENE 10:26:35 10° SSE
Cosmos 2278 Rocket 2.2 10:18:12 10° NNW 10:23:49 68° WSW 10:29:24 10° SSE
USA 267 4.1 10:19:38 10° NE 10:25:20 33° NNW 10:29:41 16° WNW
Cosmos 2237 Rocket 2.1 10:21:30 10° SSW 10:27:10 77° WNW 10:32:52 10° NNE
Cosmos 1802 Rocket 4.2 10:21:22 10° NNW 10:27:26 49° W 10:33:25 10° SSW
Cosmos 2292 Rocket 3.8 10:26:02 10° SSW 10:30:02 54° WNW 10:35:13 10° N
Cosmos 2233 Rocket 4.0 10:23:50 10° N 10:30:09 76° W 10:36:24 10° S
Cosmos 1782 Rocket 3.5 10:26:04 10° NNW 10:30:27 67° W 10:34:46 10° S
Cosmos 1812 4.5 10:31:14 10° NNE 10:33:45 25° ENE 10:36:12 10° SE
CZ-4 R/B 4.1 10:29:45 10° N 10:34:27 48° WNW 10:39:04 10° SW
NOSS 3-1 (A) 3.0 10:30:15 10° SW 10:34:50 56° NW 10:40:23 10° NNE
NOSS 2-1 (E) 4.4 10:36:47 17° WNW 10:37:32 19° NW 10:39:51 10° N
Meteor 1-24 Rocket 4.2 10:32:30 10° SW 10:37:48 37° WNW 10:42:59 10° N
USA-17 4.5 10:37:09 11° NNW 10:40:11 72° NE 10:43:40 10° SE
Cosmos 2369 Rocket 4.1 10:36:25 10° N 10:41:11 27° NE 10:45:57 10° ESE
Cosmos 44 Rocket 4.3 10:39:36 13° WNW 10:43:21 29° WSW 10:47:45 10° S
Cosmos 1420 Rocket 4.0 10:39:02 10° SSW 10:44:17 76° WNW 10:49:36 10° NNE
NOAA 12 4.4 10:44:30 10° N 10:49:32 43° WNW 10:54:31 10° SW
Meteor 2-5 Rocket 4.4 10:44:37 10° SW 10:49:55 34° WNW 10:55:13 10° N
Cosmos 1300 Rocket 4.1 10:46:33 10° NNW 10:50:30 35° W 10:54:25 10° SSW
Gbstr 26 Del rocket 4.2 10:47:30 12° W 10:51:59 43° NNW 10:57:56 10° ENE
ARIANE 5 R/B 4.4 10:48:21 10° NNE 10:53:01 36° E 10:57:40 10° SSE
ATLAS 3B R/B 4.3 10:47:34 10° S 10:54:29 44° ESE 11:01:48 10° NE
SMAP 4.3 10:51:53 10° NNE 10:56:25 48° E 11:00:54 10° S
CZ-2C R/B 4.3 10:55:51 10° NW 10:56:50 11° WNW 10:57:49 10° WNW
Cosmos 1943 Rocket 2.9 10:54:16 10° NW 10:59:08 32° WSW 11:03:57 10° SSW
SJ 16-02 1.5 10:56:47 10° NNW 11:01:06 75° ENE 11:05:22 10° SSE
USA 234 4.5 10:57:13 10° S 11:02:15 23° SW 11:07:18 10° WNW
Cosmos 1869 3.0 11:02:04 10° NNW 11:05:31 57° W 11:08:55 10° S
Cosmos 1378 Rocket 3.6 11:04:42 10° S 11:08:58 84° E 11:13:16 10° N
CENTAUR R/B 4.1 11:03:30 10° NNW 11:11:23 48° NE 11:20:20 10° ESE
